Lapse_Rate
5.1 5.5 5.8 5.6 5.8 5.3 5.3 5.6 5.9 5.7 5.8 5.5 6.5 5.8 5.9 5.4 5.6 5.6 5.7 5.7 5.6 5.4 5.4 5.3 5.2 5.0 5.2 5.2 5.1 5.2 5.3 5.2 5.5 5.5 5.2 5.2 5.4 5.4 5.4 5.4 5.5 5.5 5.4
5.4 5.4 5.5 5.5 5.5 5.6 5.7 5.7 5.9 6.0 5.9 5.9 6.0 6.3 6.1 5.3 5.6 5.7 5.5 5.5 5.6 5.5 5.3 5.3 5.3 5.2 5.2 5.3 5.2 5.3 5.5 5.4 5.4 5.5 5.3 5.3 5.3 5.5 5.5 5.5 5.6 5.6 5.6
5.6 5.6 5.7 5.6 5.5 5.6 5.8 6.1 6.2 6.3 6.2 6.1 6.2 6.6 6.3 5.9 5.8 5.6 5.6 5.5 5.4 5.4 5.4 5.3 5.4 5.2 5.2 5.3 5.2 5.4 5.4 5.4 5.4 5.6 5.4 5.3 5.4 5.5 5.6 5.7 5.6 5.6 5.7
5.8 5.9 5.9 5.9 5.8 5.7 5.8 6.1 6.2 6.3 6.4 6.3 6.3 6.7 6.8 6.1 6.2 5.8 5.6 5.4 5.3 5.4 5.4 5.3 5.2 5.2 5.3 5.3 5.4 5.5 5.5 5.5 5.6 5.7 5.6 5.3 5.4 5.5 5.8 5.8 5.7 5.7 5.7
5.8 5.7 5.9 6.0 6.1 5.9 5.8 6.0 6.2 6.3 6.3 6.5 6.6 6.6 6.7 6.4 6.2 6.0 5.9 5.6 5.3 5.3 5.3 5.3 5.3 5.3 5.3 5.3 5.5 5.6 5.6 5.6 5.6 5.9 4.8 5.4 5.7 5.8 5.9 5.9 5.9 5.9 5.8
5.1 5.8 5.9 6.2 6.3 6.3 6.3 6.2 6.2 6.4 6.4 6.5 6.5 6.7 7.0 6.4 6.1 5.9 5.7 5.7 5.5 5.3 5.2 5.3 5.2 5.3 5.3 5.4 5.7 5.7 5.8 5.7 5.5 4.8 5.4 5.7 5.7 5.9 6.0 6.0 6.0 5.9 5.9
5.3 6.2 6.1 6.2 6.3 6.4 6.5 6.5 6.5 6.3 6.4 6.4 6.4 6.6 7.1 6.6 6.4 6.2 5.8 5.8 5.7 5.4 5.3 5.4 5.4 5.4 5.4 5.5 5.7 5.8 5.9 5.7 6.0 4.9 5.4 5.7 5.8 5.9 6.0 6.0 6.0 6.0 6.0
5.6 6.4 6.4 6.3 6.4 6.5 6.6 6.6 6.5 6.4 6.6 6.7 6.4 6.5 6.7 6.8 6.3 6.2 5.9 5.7 5.5 5.5 5.3 5.4 5.4 5.7 5.6 5.7 5.7 5.8 5.9 5.8 5.3 5.3 5.6 5.7 5.8 5.9 5.9 6.0 6.1 6.1 6.1
5.7 6.7 6.5 6.4 6.4 6.6 6.6 6.5 6.5 6.6 6.7 6.8 6.9 6.8 6.8 6.9 6.5 6.3 6.0 5.8 5.9 5.7 5.4 5.6 5.6 5.7 5.8 5.8 5.7 5.9 5.8 5.7 5.9 5.6 5.2 5.6 5.8 5.8 5.9 6.0 6.1 6.1 6.2
6.0 6.7 6.7 6.6 6.5 6.4 6.6 6.6 6.6 6.6 6.7 6.8 6.8 6.7 6.7 6.6 6.9 6.5 6.2 6.1 6.0 5.9 5.7 5.6 5.7 5.7 5.7 5.8 5.8 5.9 5.7 5.6 5.6 5.6 5.3 5.6 5.7 5.8 5.8 6.0 6.2 6.2 6.4
6.8 6.9 6.7 6.7 6.6 6.6 6.6 6.6 6.6 6.7 6.7 6.8 6.7 6.7 6.6 6.5 6.5 6.5 6.3 6.3 6.1 5.9 6.0 5.7 5.7 5.7 5.6 5.6 5.7 5.7 5.6 5.5 4.8 4.7 5.4 5.6 5.8 5.8 5.8 5.9 6.2 6.2 6.3
7.4 7.0 6.9 6.6 6.7 6.6 6.6 6.5 6.6 6.8 6.8 6.8 6.9 6.8 6.8 6.6 6.5 6.3 6.1 6.2 6.3 6.1 5.9 5.9 5.8 5.7 5.7 5.6 5.6 5.5 5.4 5.0 4.7 4.9 5.0 5.6 5.7 5.8 5.8 5.9 6.1 6.2 6.3
7.6 7.2 6.9 6.8 6.7 6.6 6.6 6.5 6.5 6.6 6.6 6.5 6.5 6.7 6.9 5.9 6.2 6.2 5.9 6.0 6.1 6.5 6.2 6.1 5.9 5.8 5.8 5.0 5.1 5.3 5.1 4.5 5.1 4.9 4.9 5.5 5.7 5.8 5.8 5.9 5.9 6.0 6.2
8.0 7.3 7.0 6.8 6.8 6.6 6.5 6.5 6.5 6.5 6.5 6.2 6.0 6.7 6.7 6.5 6.2 5.8 6.1 5.8 6.3 6.4 6.3 6.1 6.0 5.9 5.9 5.4 4.7 4.4 4.4 4.5 4.8 4.9 4.8 5.4 5.5 5.8 5.8 5.9 6.0 6.0 6.0
8.2 7.8 7.4 7.0 6.8 6.6 6.5 6.6 6.5 5.5 5.7 6.6 6.1 6.3 6.6 6.5 6.3 6.2 6.4 6.4 6.6 6.4 6.5 6.2 6.1 6.0 6.0 6.1 5.9 5.5 4.6 4.5 5.3 4.9 5.4 5.2 5.4 5.6 5.6 5.8 6.0 6.0 6.0
8.2 8.1 7.7 7.4 6.9 6.7 6.6 6.6 6.5 6.6 5.4 5.5 6.3 6.5 6.4 6.1 6.4 6.3 6.3 6.2 6.4 6.5 6.6 6.3 6.2 6.3 6.1 6.2 6.0 6.0 5.6 4.7 4.9 5.3 4.8 5.4 5.5 5.5 5.5 5.5 5.7 6.0 6.1
8.1 7.9 8.0 7.6 7.4 6.9 6.7 6.6 6.4 6.6 6.5 6.3 5.5 6.8 6.6 6.5 6.5 6.4 6.2 6.1 6.3 6.5 6.3 6.4 6.2 6.3 6.2 6.1 6.0 6.0 5.9 5.8 4.8 5.4 5.0 5.4 5.5 5.2 5.4 5.5 5.6 5.7 5.8
8.1 8.0 7.8 7.8 7.7 7.4 6.9 6.8 6.6 6.3 6.5 6.1 5.7 5.9 6.7 6.8 6.8 6.7 6.4 6.5 6.6 6.5 6.3 6.4 6.4 6.4 6.2 6.1 6.0 5.8 5.7 5.7 5.8 5.6 5.6 5.4 5.5 5.3 5.5 5.5 5.4 5.5 5.5
8.0 8.0 7.9 7.8 7.8 7.5 7.3 6.9 6.7 6.5 6.4 6.4 5.7 5.8 6.8 6.6 6.7 6.7 6.7 6.3 6.6 6.6 6.7 6.6 6.5 6.4 6.4 6.1 6.1 5.8 5.7 5.6 5.6 5.4 5.6 5.6 5.1 5.1 5.0 5.4 5.3 5.4 5.5
7.8 8.2 8.1 7.9 7.8 7.6 7.5 7.2 7.0 6.7 6.5 6.2 6.2 6.5 6.8 6.6 6.5 6.5 6.5 6.6 6.7 6.6 6.6 6.7 6.7 6.5 6.4 6.2 5.9 5.5 5.9 5.8 5.7 5.6 5.0 4.8 5.1 5.5 5.4 4.6 5.7 5.7 5.5
8.1 8.0 8.1 7.9 7.7 7.7 7.7 7.6 7.4 7.1 6.9 6.7 6.4 6.3 6.5 6.5 6.6 6.5 6.5 6.6 6.4 6.6 6.5 6.5 6.5 6.5 6.4 6.3 6.1 5.9 4.9 6.1 5.8 5.8 5.5 4.6 4.5 5.1 4.7 4.8 5.7 6.0 5.9
8.1 8.5 8.1 7.8 7.7 7.6 7.5 7.6 7.4 7.3 7.0 6.7 6.6 6.5 6.4 6.3 6.4 6.5 6.4 6.4 6.5 6.6 6.5 6.5 6.3 6.2 6.2 6.3 6.3 6.1 5.5 5.8 6.2 6.2 5.9 5.8 5.1 4.7 4.6 4.7 5.5 5.9 5.9
7.8 8.2 8.7 8.2 7.9 7.6 7.4 7.5 7.4 7.2 7.1 7.4 6.9 7.0 6.6 6.3 6.3 6.3 6.3 6.2 6.4 6.2 6.5 6.2 6.0 5.8 5.8 6.2 6.3 6.1 5.6 5.6 5.3 5.3 5.4 5.8 5.5 5.1 4.7 5.1 5.1 5.5 5.9
7.6 7.8 8.1 8.2 8.0 7.8 7.5 7.3 7.5 7.5 7.5 7.5 7.5 7.1 6.8 6.5 6.4 6.4 6.4 6.3 6.2 6.4 6.3 6.2 6.1 6.1 5.8 6.0 6.2 6.1 6.0 5.9 5.7 5.3 5.4 5.7 4.8 5.2 5.7 5.5 5.5 5.6 5.9
6.7 6.6 7.5 7.8 7.7 7.6 7.4 7.5 7.5 7.5 7.3 7.1 7.1 7.2 7.3 7.1 6.6 6.5 6.5 6.5 6.3 6.2 6.3 6.2 6.2 6.4 6.3 6.1 6.0 6.1 6.0 6.0 5.9 5.9 5.9 5.9 5.9 5.9 6.1 5.5 5.4 5.8 5.4
6.4 6.2 6.7 6.9 7.4 7.4 7.4 7.4 7.3 7.6 7.5 7.3 7.2 7.2 7.3 7.4 7.5 7.0 6.8 6.6 6.6 6.3 6.3 6.2 6.2 6.2 6.3 6.3 6.1 6.1 6.1 6.3 6.3 6.1 6.0 5.9 5.7 5.9 5.5 5.4 5.3 5.3 5.6
Wind_Speed
21 23 17 13 17 18 19 18 18 19 21 23 23 23 22 20 20 20 19 18 17 15 14 15 14 16 17 17 16 16 17 17 18 19 18 17 15 14 11 12 20 18 15
23 25 17 15 20 20 20 19 18 20 21 21 22 23 21 19 20 18 17 16 15 14 14 14 13 14 15 15 15 14 15 16 15 18 17 17 15 11 12 17 23 18 17
23 25 21 18 21 21 20 20 19 20 22 20 21 21 21 18 19 19 15 15 15 14 14 13 11 12 14 13 13 11 14 14 13 16 23 18 16 13 15 19 17 16 15
22 24 23 19 22 22 21 21 20 21 22 21 20 20 19 18 18 18 15 14 13 13 12 12 10 11 11 11 12 12 12 8 8 11 14 16 15 12 14 15 15 15 14
21 23 24 20 22 22 22 22 21 21 20 19 19 20 18 17 16 16 13 13 12 11 10 10 9 10 10 11 12 10 8 6 8 11 12 15 15 13 13 13 15 11 13
21 25 24 21 21 22 21 20 21 20 20 19 18 18 18 17 15 15 13 11 11 10 9 9 9 9 10 11 12 9 5 7 9 7 8 13 18 14 9 10 13 13 14
19 25 23 21 20 20 21 20 19 19 20 19 19 17 15 14 14 13 12 11 11 9 8 7 8 8 9 8 11 7 3 8 13 12 9 16 15 11 9 12 11 10 11
20 22 23 20 20 19 20 20 19 18 18 18 17 17 16 14 12 11 11 10 9 7 7 6 9 8 8 8 9 6 4 10 10 7 6 18 15 10 10 10 9 8 10
20 19 21 21 19 18 18 19 19 18 17 16 16 15 15 14 13 12 11 10 8 7 7 7 9 9 9 9 8 6 5 12 13 10 9 15 12 10 8 9 8 7 6
15 18 17 20 19 19 18 16 17 18 17 16 16 15 14 13 12 12 9 9 10 9 8 9 10 10 10 8 6 5 9 15 14 11 11 17 15 10 8 9 8 8 6
14 18 17 16 18 17 17 17 15 16 16 15 15 15 14 13 13 14 12 14 10 10 10 11 10 11 9 7 6 9 12 15 9 10 19 21 14 9 9 9 7 7 6
19 18 17 17 16 19 18 19 17 16 15 14 13 16 15 14 16 13 11 12 11 11 10 11 10 10 11 14 11 13 12 17 3 5 16 20 13 8 10 8 7 7 7
18 16 17 17 16 15 11 17 12 13 10 12 15 12 14 8 14 9 10 12 11 14 13 13 12 12 14 15 15 11 12 8 2 5 18 20 14 11 10 9 9 9 8
19 18 18 16 15 13 13 13 17 13 16 14 16 14 9 7 10 10 10 13 13 13 12 14 14 11 12 13 3 7 6 8 6 6 17 20 16 13 12 11 11 11 10
19 19 18 17 13 14 10 11 10 8 12 19 15 17 12 12 6 9 10 11 12 14 11 8 8 11 11 6 9 4 8 7 4 8 12 20 19 18 14 13 12 12 12
19 20 19 19 15 12 11 8 9 10 10 11 17 17 15 14 12 11 8 9 10 12 12 9 7 7 6 9 8 9 10 8 9 5 8 9 17 19 16 15 14 13 13
17 18 19 18 18 15 14 10 8 9 12 10 11 16 21 15 12 8 8 8 9 9 16 11 5 4 6 9 9 11 11 11 11 7 11 5 14 17 20 18 16 15 15
17 18 18 17 17 18 15 11 9 12 13 11 14 20 19 16 17 16 8 9 15 10 10 10 9 8 7 9 7 8 8 11 13 10 11 9 10 7 14 22 22 19 16
15 17 17 17 19 19 15 13 11 11 9 12 14 13 18 17 15 12 9 8 13 13 10 9 9 10 9 8 8 8 7 8 8 12 13 12 11 7 16 20 21 20 19
13 16 16 15 15 17 13 11 12 11 11 13 11 13 20 18 18 14 12 4 12 9 9 10 9 8 7 8 9 9 9 9 8 9 9 13 10 12 12 11 17 16 26
15 14 12 13 14 13 13 14 12 13 11 11 11 13 14 16 19 14 10 6 10 9 10 8 7 8 9 8 8 8 7 9 10 9 10 9 8 13 18 10 10 14 11
15 15 15 14 15 15 13 11 12 11 12 12 12 10 14 17 16 15 13 10 12 8 8 6 8 9 10 9 9 8 8 9 11 12 10 10 11 12 8 13 15 12 13
12 17 16 17 16 17 17 12 10 10 10 12 12 12 13 17 16 16 14 12 11 9 9 9 6 8 11 10 12 8 6 8 6 5 9 10 9 8 8 8 12 14 14
2 12 15 14 16 16 18 16 17 14 14 13 13 13 13 19 16 19 16 13 12 12 12 11 10 11 12 7 6 10 11 7 3 4 3 1 8 5 7 9 10 12 12
5 10 14 17 17 18 18 19 14 16 14 13 13 14 14 14 15 18 17 15 14 12 11 12 13 12 11 9 6 5 6 7 6 7 6 6 6 7 6 1 7 11 12
7 5 8 9 13 15 17 19 20 16 17 13 14 13 13 13 14 17 17 16 15 14 13 13 13 13 12 10 8 8 8 7 9 9 9 9 10 10 8 7 9 3 10
Wind_Direction
152 152 172 159 150 144 137 138 136 136 131 127 126 125 124 124 122 117 115 115 111 108 103 97 93 98 102 104 105 101 101 98 102 104 106 107 108 112 117 137 133 101 104
138 147 155 148 146 143 143 138 136 130 131 128 127 126 127 132 126 121 119 118 114 110 107 103 99 100 100 104 109 109 110 112 113 116 115 111 108 103 90 91 84 102 103
134 138 150 141 144 142 142 137 135 132 134 128 129 127 129 130 129 125 123 121 116 115 115 110 108 104 102 108 108 113 114 122 137 145 157 118 108 97 92 92 104 108 107
138 148 142 140 142 141 141 138 139 135 137 133 135 133 136 131 131 131 127 124 124 119 119 116 115 108 106 110 112 110 114 147 169 181 201 117 112 105 105 107 112 114 112
141 150 131 142 142 143 144 142 142 140 141 141 142 142 140 138 136 128 133 131 130 125 123 118 116 111 114 115 110 117 131 184 214 223 129 118 112 115 123 124 121 128 118
155 136 138 143 144 145 145 144 145 144 145 146 146 147 147 144 140 136 133 138 134 128 131 127 124 120 123 120 122 124 159 229 252 139 84 79 106 127 136 122 102 107 107
150 125 147 148 148 145 146 148 149 149 148 149 151 153 152 146 146 149 147 144 135 138 142 142 134 133 137 132 124 135 201 251 263 127 163 94 112 131 120 109 110 117 117
135 138 143 147 148 149 150 150 154 155 152 155 156 159 159 160 159 164 160 152 145 161 163 155 148 141 144 142 131 153 229 274 286 105 118 103 123 127 119 117 121 140 138
135 141 152 157 153 155 156 156 159 161 162 159 160 161 165 169 169 175 170 165 169 181 160 159 148 149 146 146 146 159 261 279 282 112 157 124 132 138 141 141 144 135 128
146 145 156 158 163 165 162 161 159 161 168 170 169 172 178 182 187 188 176 172 193 183 173 173 156 149 157 154 158 189 246 269 260 123 106 112 136 150 161 155 153 154 158
164 151 158 159 164 171 168 168 167 168 172 176 178 178 175 190 185 173 189 165 187 185 172 176 163 153 163 174 191 228 246 246 220 177 105 133 145 166 195 169 167 173 181
171 164 162 166 169 173 178 156 184 179 185 186 189 175 204 189 180 186 167 171 181 181 175 172 170 168 199 182 189 236 245 266 138 126 116 134 152 172 168 180 182 193 201
175 173 172 170 170 178 171 167 179 193 194 171 207 189 204 161 106 151 158 175 186 185 185 179 178 203 208 235 160 206 219 223 173 124 132 138 163 183 195 199 196 199 207
180 184 174 180 160 179 168 172 188 198 182 174 203 198 212 188 169 161 181 194 192 175 207 209 185 204 223 249 225 212 210 234 240 139 148 150 170 192 200 208 212 212 210
183 187 178 177 173 187 213 165 222 221 181 162 186 180 211 191 177 186 197 231 186 162 199 253 247 184 207 211 266 251 267 237 284 283 140 163 176 190 204 214 217 222 223
183 187 183 178 176 192 205 184 199 204 182 195 176 181 192 231 170 186 194 223 199 171 186 218 259 168 221 198 235 233 244 249 208 59 260 152 196 188 198 212 219 227 231
182 189 186 189 183 182 209 204 199 198 230 200 174 177 170 214 165 194 206 226 219 200 182 197 231 217 233 201 222 207 244 243 258 195 254 143 206 198 193 201 215 224 230
183 191 191 184 186 192 193 189 203 218 201 209 211 170 176 202 176 192 190 215 192 202 203 200 192 208 221 212 216 221 207 249 216 240 269 266 187 201 189 207 201 215 227
192 188 195 190 183 203 191 197 205 208 209 220 212 206 163 190 227 213 227 200 173 196 192 221 202 216 202 223 211 214 232 238 231 230 232 244 263 256 196 196 209 209 217
198 191 197 196 187 192 203 205 197 207 208 217 213 213 159 187 208 197 224 193 183 225 215 202 214 212 241 205 243 208 215 222 234 247 245 232 239 239 236 211 187 216 221
198 196 183 201 185 191 203 203 207 207 202 214 215 210 184 191 196 201 227 190 195 229 222 191 201 231 216 244 230 249 238 221 245 247 239 235 224 221 242 227 242 268 256
206 188 180 196 194 189 210 208 213 211 206 210 213 201 207 201 204 199 218 205 189 219 263 213 210 217 222 218 227 237 230 227 229 225 235 258 249 247 251 230 231 223 254
240 196 179 196 203 192 208 212 211 224 221 202 213 196 205 214 205 211 205 233 183 198 212 213 196 235 234 208 206 242 219 242 243 197 206 227 258 244 254 247 245 217 212
47 190 178 187 203 207 206 213 207 212 209 216 212 206 199 200 204 206 215 208 234 207 201 201 199 208 244 237 207 214 263 333 276 254 292 312 258 235 258 265 266 254 232
18 165 187 200 207 212 211 226 213 219 219 216 218 215 204 195 206 210 205 213 210 225 220 214 202 204 215 229 218 218 241 239 240 258 267 263 249 243 239 284 250 242 212
15 340 184 209 222 221 220 224 233 227 226 224 211 214 212 215 199 213 213 205 213 214 220 212 219 212 212 218 219 211 217 202 212 216 239 262 284 279 262 211 213 231 275